Temp
8 8 8 8 9 9 9 9 9 10 9 9 9 9 9 8 9 9 9 9 8 8 8 8 7 7 7 7 7 7 7 7 7
8 8 8 8 9 9 9 9 9 9 9 9 9 9 9 9 9 9 9 9 8 8 8 7 8 7 7 7 7 7 7 7 7
7 8 8 8 9 9 9 9 9 9 9 9 9 9 9 9 8 9 9 9 9 8 8 8 8 7 7 7 7 7 7 7 7
7 7 8 8 8 9 9 9 9 9 9 9 9 8 9 9 8 9 9 9 9 8 8 8 8 8 7 7 7 7 7 7 7
7 7 8 8 8 8 9 9 9 9 9 8 9 9 9 9 8 9 9 9 9 8 8 8 8 8 7 7 7 7 7 7 7
7 7 7 8 8 8 8 8 8 9 9 8 8 9 9 8 8 8 9 9 8 8 8 8 8 8 7 7 7 7 7 7 7
6 7 7 8 8 8 8 8 8 8 8 9 9 9 9 9 8 8 8 8 8 8 8 8 7 7 7 7 7 7 7 7 7
7 7 7 8 8 8 8 8 8 8 8 8 8 9 8 8 8 8 8 8 8 8 8 8 7 7 7 7 7 7 7 7 7
7 7 7 7 8 8 8 8 8 8 8 8 8 8 8 8 8 8 8 8 7 7 7 7 7 7 7 7 7 7 7 7 7
7 7 7 7 8 8 8 7 7 7 8 8 8 8 8 8 8 8 7 8 7 7 7 7 7 7 7 7 7 7 7 7 7
6 6 7 7 7 8 7 7 7 7 7 7 8 8 8 8 8 7 7 7 7 7 7 7 7 6 7 7 7 7 7 7 7
6 6 7 7 7 7 7 7 7 7 7 7 7 8 8 8 7 7 7 7 7 7 7 7 6 7 7 6 7 7 7 6 6
5 6 7 6 6 6 7 7 7 7 7 7 7 7 7 7 7 7 7 7 6 6 7 6 6 6 6 6 6 6 7 6 6
5 6 6 6 6 6 6 6 6 7 6 6 7 7 7 7 7 7 7 7 6 6 6 6 6 6 6 6 6 6 6 6 6
4 5 6 6 6 6 6 6 6 6 6 6 6 6 6 6 7 7 7 7 6 6 6 6 6 6 6 6 6 6 6 6 6
4 4 5 5 5 5 6 6 6 6 6 6 6 6 6 6 6 6 6 6 6 6 6 6 6 6 6 6 6 6 6 6 6
3 4 3 4 4 5 5 5 6 5 6 6 5 6 6 6 6 6 6 6 6 6 6 6 6 6 6 6 6 6 6 6 6
2 4 3 2 3 5 5 5 5 6 6 6 6 6 6 6 6 6 6 6 6 6 6 6 6 6 6 6 6 6 6 6 6
3 3 4 2 4 4 5 5 5 5 5 5 5 5 5 5 5 6 6 5 5 5 6 6 6 6 5 5 5 5 5 5 5
2 2 4 3 3 4 4 4 4 4 4 4 4 5 5 5 5 5 5 5 5 5 5 5 5 5 5 5 5 5 5 5 5
Height
3155 3156 3159 3161 3162 3165 3168 3170 3171 3173 3174 3175 3177 3178 3178 3179 3178 3180 3180 3179 3179 3180 3180 3179 3180 3180 3181 3181 3180 3180 3180 3180 3180
3154 3156 3158 3160 3162 3165 3167 3170 3172 3173 3176 3176 3176 3179 3179 3181 3180 3181 3181 3181 3180 3181 3181 3180 3180 3181 3181 3182 3181 3180 3180 3179 3180
3152 3155 3157 3159 3161 3164 3166 3169 3173 3174 3174 3177 3177 3178 3180 3181 3181 3183 3182 3184 3182 3182 3182 3182 3180 3180 3182 3182 3183 3182 3180 3181 3180
3150 3153 3156 3158 3160 3163 3165 3167 3171 3175 3174 3176 3178 3178 3179 3180 3181 3183 3184 3185 3184 3184 3184 3183 3182 3181 3182 3183 3183 3183 3181 3181 3182
3147 3150 3154 3156 3159 3162 3164 3167 3168 3174 3176 3175 3178 3179 3180 3181 3181 3183 3184 3186 3186 3184 3186 3185 3184 3182 3182 3183 3183 3183 3183 3181 3181
3144 3147 3151 3154 3157 3160 3163 3165 3167 3171 3175 3176 3176 3179 3180 3182 3182 3183 3184 3186 3186 3187 3187 3187 3186 3184 3182 3183 3184 3184 3183 3183 3182
3139 3144 3148 3151 3154 3157 3160 3164 3166 3169 3173 3176 3176 3178 3180 3181 3183 3183 3184 3186 3187 3187 3187 3188 3188 3187 3185 3183 3184 3184 3184 3184 3184
3135 3139 3143 3147 3150 3154 3158 3162 3164 3167 3171 3176 3177 3177 3180 3181 3183 3183 3184 3185 3188 3187 3188 3188 3188 3188 3187 3186 3183 3184 3185 3184 3185
3132 3136 3140 3144 3148 3152 3156 3159 3163 3166 3167 3172 3176 3176 3178 3180 3182 3183 3183 3184 3186 3187 3188 3188 3188 3189 3188 3186 3185 3183 3184 3185 3185
3128 3132 3136 3140 3145 3149 3153 3157 3160 3163 3165 3169 3172 3175 3177 3178 3181 3182 3183 3184 3184 3186 3187 3187 3188 3187 3188 3187 3187 3184 3184 3185 3185
3124 3128 3132 3137 3140 3146 3151 3155 3158 3161 3163 3166 3169 3174 3176 3177 3179 3181 3183 3184 3184 3185 3186 3187 3188 3188 3188 3188 3188 3186 3184 3184 3184
3120 3124 3128 3133 3137 3142 3146 3150 3155 3159 3161 3164 3167 3170 3175 3176 3178 3179 3182 3183 3184 3184 3185 3187 3186 3187 3188 3186 3187 3187 3186 3184 3184
3114 3119 3124 3129 3133 3138 3143 3148 3151 3156 3159 3162 3165 3168 3171 3174 3176 3177 3181 3183 3182 3184 3184 3185 3185 3185 3186 3187 3187 3187 3186 3184 3184
3108 3115 3120 3124 3129 3135 3139 3143 3148 3154 3156 3160 3163 3166 3169 3172 3174 3175 3178 3181 3182 3182 3184 3184 3184 3185 3185 3185 3185 3185 3185 3184 3183
3101 3108 3114 3119 3124 3129 3134 3139 3144 3150 3153 3158 3160 3164 3166 3169 3171 3173 3176 3178 3180 3180 3183 3183 3183 3183 3184 3184 3184 3183 3183 3183 3182
3094 3101 3109 3114 3120 3126 3130 3136 3141 3146 3150 3154 3158 3160 3164 3167 3168 3171 3174 3175 3178 3178 3179 3181 3182 3181 3182 3183 3182 3181 3181 3180 3180
3088 3095 3102 3110 3116 3121 3126 3132 3137 3142 3147 3151 3155 3159 3162 3164 3166 3168 3172 3173 3174 3176 3177 3179 3178 3180 3179 3180 3180 3179 3178 3177 3177
3082 3089 3094 3103 3111 3118 3123 3127 3133 3139 3142 3148 3151 3155 3156 3161 3163 3166 3168 3171 3171 3173 3175 3176 3176 3178 3177 3177 3177 3177 3176 3175 3174
3074 3083 3086 3094 3105 3111 3118 3123 3130 3136 3141 3144 3148 3153 3156 3158 3161 3163 3165 3168 3169 3170 3171 3173 3174 3174 3174 3173 3174 3174 3173 3172 3171
3069 3076 3082 3087 3098 3105 3112 3118 3124 3131 3136 3140 3145 3150 3152 3154 3157 3160 3162 3165 3166 3167 3168 3169 3170 3170 3170 3170 3170 3170 3170 3169 3167
Wind_Speed
17 15 12 12 11 12 11 11 12 12 12 13 12 12 12 11 13 11 11 12 13 12 12 12 10 9 7 4 4 3 4 5 4
18 16 13 13 13 12 13 12 12 14 13 14 13 11 12 10 11 10 10 10 12 12 12 12 12 10 9 6 5 5 3 3 3
19 17 14 14 15 14 15 14 12 15 15 13 13 12 11 10 9 7 8 7 11 11 11 11 13 12 10 9 6 5 5 4 4
20 19 16 16 16 16 15 16 15 14 16 15 12 12 10 10 8 6 6 5 8 9 8 10 11 13 11 11 8 6 6 6 5
23 21 18 18 18 17 17 18 18 17 17 17 14 12 10 10 8 6 5 3 3 7 6 7 9 11 11 10 10 7 6 6 6
26 24 21 20 20 19 19 20 19 20 19 17 16 13 11 9 8 7 4 2 3 4 4 4 6 7 10 10 10 9 8 8 7
30 27 24 24 22 22 22 22 22 22 20 18 16 14 12 10 8 7 5 3 2 3 2 2 3 5 7 9 9 9 9 9 9
33 30 28 27 26 25 24 24 24 24 22 18 16 14 12 10 9 8 6 4 3 3 2 1 1 3 4 6 8 8 8 8 8
35 32 30 28 28 26 25 26 25 24 23 21 18 15 14 11 10 9 8 7 5 3 3 2 1 3 3 3 4 6 5 6 7
36 34 31 30 29 27 28 27 27 27 24 22 19 17 15 13 12 10 8 8 6 5 4 3 3 2 3 2 1 2 3 4 6
38 35 33 31 31 27 29 29 28 27 25 23 21 18 16 14 13 11 9 8 7 5 5 4 4 4 4 4 4 3 2 3 4
39 37 34 32 30 31 33 32 29 28 26 24 22 20 18 16 14 12 11 10 8 7 5 5 4 5 6 5 6 7 6 5 7
40 37 35 34 34 35 33 32 32 30 28 26 24 22 20 18 16 14 12 11 9 8 7 6 4 4 5 6 8 9 9 9 9
42 38 36 36 35 36 35 35 34 32 30 28 26 24 22 20 18 16 15 13 11 9 8 6 5 5 5 6 8 9 11 12 11
48 43 40 39 39 40 38 37 35 34 31 29 28 25 24 23 20 19 17 15 13 11 10 8 8 6 7 8 8 9 11 13 14
54 46 41 40 40 40 38 38 37 34 33 32 30 28 26 24 22 20 19 17 15 13 12 11 10 9 9 10 11 11 13 14 16
57 50 43 42 41 42 41 39 37 36 34 33 30 29 28 27 24 22 21 19 17 15 14 14 13 13 11 13 14 14 15 14 16
54 51 50 46 44 43 41 39 38 37 36 34 32 31 30 26 24 23 23 22 19 17 16 16 15 16 14 14 16 16 17 17 17
55 54 51 48 46 44 42 40 39 37 34 33 30 31 26 26 25 25 24 23 20 18 18 18 18 18 17 16 18 19 19 19 19
51 60 52 51 47 45 43 42 40 38 36 33 29 30 29 27 26 25 24 23 21 21 20 19 20 20 18 18 19 20 21 21 21
Wind_Direction
193 200 198 195 196 189 180 183 164 158 153 144 137 134 125 118 111 100 89 84 82 81 77 79 73 69 63 59 54 41 17 355 349
198 204 202 195 198 189 185 179 174 161 162 153 143 143 130 127 118 107 93 87 84 79 76 83 80 74 71 55 64 70 69 73 28
204 208 206 200 194 189 188 181 183 171 162 162 154 151 142 135 123 116 101 91 92 83 78 74 79 73 65 60 51 67 74 68 91
209 211 209 204 197 191 190 182 181 185 169 166 169 160 154 148 141 132 109 92 95 91 81 77 77 74 60 52 47 41 70 71 44
211 212 211 207 200 197 191 190 177 187 185 172 178 177 169 166 154 151 130 109 97 101 85 74 71 74 64 46 42 43 47 65 64
210 212 210 206 203 199 195 193 183 185 191 188 181 187 181 183 169 162 157 153 124 95 93 74 68 64 69 52 38 37 40 36 47
210 210 211 205 205 202 197 195 188 185 194 198 190 190 193 191 187 178 172 178 174 133 116 86 38 52 56 62 48 39 39 36 32
212 209 211 206 205 203 201 197 193 189 191 201 202 194 200 201 197 191 185 184 212 169 219 221 4 20 35 54 66 51 37 44 34
214 213 212 208 208 205 200 202 196 193 190 199 205 202 200 204 204 205 193 195 202 210 226 246 303 333 4 42 58 84 55 37 40
214 214 212 208 209 205 203 202 200 199 196 199 205 209 207 202 209 207 205 204 192 215 229 250 264 284 305 327 342 75 75 39 29
215 214 211 208 209 204 206 204 204 203 200 202 203 213 210 203 206 205 209 209 199 205 228 246 271 284 292 308 309 324 16 3 14
214 214 212 209 208 204 206 203 205 206 204 205 205 207 214 208 206 202 211 209 206 200 219 240 247 278 285 295 302 308 318 332 336
212 213 212 209 209 208 205 205 204 206 207 207 208 206 207 210 208 204 210 214 205 211 208 231 240 261 287 308 307 309 312 317 321
207 212 211 209 208 211 207 205 207 208 208 207 208 206 208 209 209 205 207 215 211 209 226 225 239 271 289 299 306 314 313 314 316
207 209 209 209 210 210 208 209 208 208 209 209 209 208 208 210 209 209 212 211 217 213 229 235 245 253 274 286 298 308 312 314 314
205 206 209 211 213 213 211 211 211 211 209 210 210 209 210 214 210 213 216 215 223 222 230 241 251 259 272 284 290 299 303 308 310
208 209 207 212 214 214 212 212 213 211 213 213 209 214 213 215 212 213 221 221 222 228 234 245 252 263 269 281 288 294 297 304 307
211 215 208 208 214 216 214 213 214 217 214 213 213 216 215 217 216 218 222 227 225 232 241 250 257 266 271 279 286 292 296 302 305
215 220 217 205 213 213 214 214 215 216 217 219 219 222 221 221 221 223 226 232 232 237 243 254 261 267 273 279 285 290 295 299 302
229 217 227 212 211 212 213 213 215 215 216 216 223 226 224 222 224 227 230 235 238 243 247 252 263 267 274 280 285 291 296 299 303